Weather History for Port Angeles, WA

Change the Weather History Date:

Saturday, March 15, 2014

  Actual Average Record
Temperature  
Mean Temperature 48 °F -  
Max Temperature 54 °F 50 °F 59 °F (1992)
Min Temperature 43 °F 37 °F 27 °F (1988)
Degree Days  
Heating Degree Days 17    
Moisture  
Dew Point 42 °F    
Average Humidity 84    
Maximum Humidity 97    
Minimum Humidity 57    
Precipitation  
Precipitation 0.67 in - - ()
Sea Level Pressure  
Sea Level Pressure 30.19 in    
Wind  
Wind Speed 4 mph (SW)    
Max Wind Speed 14 mph    
Max Gust Speed 22 mph    
Visibility 9 miles    
Events Rain    
Averages and records for this station are not official NWS values.
T = Trace of Precipitation, MM = Missing Value Source: NWS Daily Summary

Daily Weather History Graph

Daily Weather History Graph

Search for Another Location

Airport:

Trip Planner

Search our weather history database for the weather conditions in past years. The results will help you decide how hot, cold, wet, or windy it might be!

Date:

Astronomy

Mar. 15, 2014 Rise Set
Actual Time 7:26 AM PDT 7:19 PM PDT
Civil Twilight 6:55 AM PDT 7:50 PM PDT
Nautical Twilight 6:19 AM PDT 8:26 PM PDT
Astronomical Twilight 5:42 AM PDT 9:04 PM PDT
Moon 6:44 PM PDT (3/15) 6:44 AM PDT (3/15)
Length of Visible Light 12h 54m
Length of Day
11h 52m
Waxing Gibbous, 99% of the Moon is Illuminated
Mar 15
Waxing Gibbous
Mar 16
Full
Mar 23
Last Quarter
Mar 30
New
Apr 7
First Quarter

Hourly Weather History & Observations

Time (PDT) Temp. Windchill Dew Point Humidity Pressure Visibility Wind Dir Wind Speed Gust Speed Precip Events Conditions
12:53 AM 43.0 °F 40.3 °F 37.9 °F 82% 30.33 in 10.0 mi SW 4.6 mph - N/A   Overcast
1:53 AM 44.1 °F 40.1 °F 37.0 °F 76% 30.31 in 10.0 mi SW 6.9 mph - N/A   Overcast
2:06 AM 43.0 °F 39.5 °F 37.0 °F 80% 30.30 in 10.0 mi SW 5.8 mph - N/A   Mostly Cloudy
2:53 AM 43.0 °F - 36.0 °F 76% 30.29 in 10.0 mi Calm Calm - N/A   Mostly Cloudy
3:53 AM 44.1 °F 39.0 °F 39.0 °F 82% 30.25 in 10.0 mi ESE 9.2 mph - N/A   Overcast
4:14 AM 46.0 °F 44.8 °F 39.9 °F 79% 30.26 in 10.0 mi Variable 3.5 mph - N/A   Overcast
4:53 AM 45.0 °F - 39.9 °F 82% 30.26 in 10.0 mi Calm Calm - N/A   Overcast
5:25 AM 44.1 °F 41.5 °F 39.9 °F 85% 30.26 in 10.0 mi WSW 4.6 mph - N/A   Mostly Cloudy
5:53 AM 43.0 °F - 39.9 °F 89% 30.24 in 10.0 mi Calm Calm - N/A   Overcast
6:53 AM 43.0 °F 41.3 °F 39.0 °F 86% 30.23 in 10.0 mi WSW 3.5 mph - N/A   Overcast
7:27 AM 43.0 °F 40.3 °F 39.0 °F 86% 30.21 in 10.0 mi SSE 4.6 mph - N/A   Overcast
7:35 AM 44.1 °F - 39.9 °F 85% 30.20 in 10.0 mi Calm Calm - N/A   Overcast
7:53 AM 44.1 °F - 39.9 °F 85% 30.21 in 10.0 mi Calm Calm - N/A   Overcast
8:18 AM 45.0 °F 42.6 °F 41.0 °F 86% 30.19 in 10.0 mi SE 4.6 mph - 0.00 in   Overcast
8:26 AM 45.0 °F 43.5 °F 41.0 °F 86% 30.19 in 10.0 mi ESE 3.5 mph - 0.00 in   Overcast
8:53 AM 46.0 °F - 42.1 °F 86% 30.18 in 10.0 mi Calm Calm - 0.00 in   Overcast
9:53 AM 46.0 °F - 42.1 °F 86% 30.17 in 10.0 mi Calm Calm - N/A   Mostly Cloudy
10:53 AM 48.0 °F - 42.1 °F 80% 30.17 in 10.0 mi WNW 4.6 mph - N/A   Overcast
11:53 AM 50.0 °F - 42.1 °F 74% 30.15 in 10.0 mi North 4.6 mph - N/A   Overcast
12:53 PM 51.1 °F - 41.0 °F 68% 30.13 in 10.0 mi Variable 6.9 mph - N/A   Scattered Clouds
1:53 PM 51.1 °F - 41.0 °F 68% 30.13 in 10.0 mi Calm Calm - N/A   Mostly Cloudy
2:53 PM 53.1 °F - 37.9 °F 57% 30.12 in 10.0 mi West 6.9 mph - N/A   Mostly Cloudy
3:53 PM 48.9 °F - 43.0 °F 80% 30.11 in 6.0 mi SE 12.7 mph - 0.04 in Rain Rain
4:53 PM 50.0 °F - 46.9 °F 89% 30.12 in 10.0 mi SSE 3.5 mph - 0.06 in Rain Light Rain
5:53 PM 48.0 °F - 45.0 °F 89% 30.12 in 9.0 mi ESE 3.5 mph - 0.03 in Rain Light Rain
6:43 PM 48.0 °F - 45.0 °F 89% 30.15 in 4.0 mi Variable 4.6 mph - 0.05 in Rain Rain
6:53 PM 46.9 °F - 46.0 °F 97% 30.14 in 2.0 mi Calm Calm - 0.09 in Rain Rain
7:04 PM 48.0 °F - 46.0 °F 93% 30.14 in 6.0 mi WSW 4.6 mph - 0.01 in Rain Light Rain
7:33 PM 46.9 °F - 46.0 °F 97% 30.14 in 2.0 mi Calm Calm - 0.12 in Rain Rain
7:44 PM 48.0 °F - 46.0 °F 93% 30.13 in 6.0 mi Calm Calm - 0.12 in Rain Light Rain
7:53 PM 48.0 °F - 46.0 °F 93% 30.13 in 4.0 mi Calm Calm - 0.13 in Rain Light Rain
8:14 PM 46.9 °F - 46.0 °F 97% 30.12 in 5.0 mi Calm Calm - 0.03 in Rain Light Rain
8:53 PM 48.0 °F - 46.9 °F 96% 30.16 in 10.0 mi WNW 6.9 mph - 0.09 in Rain Light Rain
9:53 PM 48.9 °F - 46.9 °F 93% 30.17 in 7.0 mi West 6.9 mph - 0.14 in Rain Light Rain
10:53 PM 50.0 °F - 46.0 °F 86% 30.18 in 10.0 mi WSW 10.4 mph - 0.06 in Rain Light Rain
11:53 PM 50.0 °F - 43.0 °F 77% 30.18 in 10.0 mi WSW 13.8 mph 21.9 mph 0.03 in Rain Light Rain